Volver al catálogo

STARLINK-35251

ActivoComunicacionesSSO
NORAD 65604·PAYLOAD·🇺🇸 United States

Lanzado Sep 13, 2025 desde Cape Canaveral Space Force Station

Loading…

Próximos Pases (próximas 24 horas)

TLE

ActualizadoSource: CelesTrak SupGP

Época: Sep 14, 2026, 20:53 UTC

1 65604C 25207N   26257.87062500 -.00040776  00000+0 -24789-2 0  2571
2 65604  97.2846 320.5320 0001924  88.8286  88.9685 15.10570969    18

Sigue STARLINK-35251 en tiempo real con AllMySat

Download on the App Store